Location: Eurasberg
(48.3353°N, 11.0839°E)
Time: 13:44:07
(UTC+00:00)

Timation 1 Rocket - Pass Details

Date: 19 April 2026
Orbit: 895 x 908 km, 70.0° (Epoch: 14 May)

Event Time Altitude Azimuth Distance (km) Brightness Sun altitude
Exits shadow 02:57:58 - 284° (WNW) 3,135 6.8 -12.9°
Reaches altitude 10° 03:00:23 10° 302° (WNW) 2,599 6.5 -12.5°
Maximum altitude 03:03:29 14° 333° (NNW) 2,308 6.5 -12.1°
Drops below altitude 10° 03:06:36 10° 5° (N) 2,604 7.3 -11.6°
Sets 03:10:31 0° 29° (NNE) 3,548 8.6 -11.1°
